Villa Grove, CO

5:54 PM MST on February 22, 2017 (GMT -0700)
Monarch Pass

Weather History for KMYP - December, 2012

Change the Weather History Date:

Saturday, December 29, 2012

  Actual Average (KGUC) Record (KGUC)
Temperature  
Mean Temperature 8 °F -  
Max Temperature 21 °F 23 °F 48 °F (2011)
Min Temperature -4 °F 0 °F -22 °F (2007)
Degree Days  
Heating Degree Days 56    
Moisture  
Dew Point -11 °F    
Average Humidity 47    
Maximum Humidity 85    
Minimum Humidity 16    
Precipitation  
Precipitation 0.00 in - - ()
Sea Level Pressure  
Sea Level Pressure 30.17 in    
Wind  
Wind Speed 23 mph (SW)    
Max Wind Speed 29 mph    
Max Gust Speed -    
Averages and records for this station are not official NWS values.
T = Trace of Precipitation, MM = Missing Value Source: NWS Daily Summary

Daily Weather History Graph

Daily Weather History Graph

Search for Another Location

Airport or City:

Trip Planner

Search our weather history database for the weather conditions in past years. The results will help you decide how hot, cold, wet, or windy it might be!

Date:

Astronomy

Dec. 29, 2012 Rise Set
Actual Time 7:21 AM MST 4:53 PM MST
Civil Twilight 6:51 AM MST 5:22 PM MST
Nautical Twilight 6:18 AM MST 5:55 PM MST
Astronomical Twilight 5:46 AM MST 6:28 PM MST
Moon 6:27 PM MST (12/29) 7:57 AM MST (12/29)
Length of Visible Light 10h 31m
Length of Day
9h 32m
Full, 98% of the Moon is Illuminated
Dec 29
Full
Jan 4
Last Quarter
Jan 11
New
Jan 18
First Quarter
Jan 26
Full

Hourly Weather History & Observations

Time (MST) Temp. Windchill Dew Point Humidity Pressure Visibility Wind Dir Wind Speed Gust Speed Precip Events Conditions
12:16 AM -4.0 °F - -7.6 °F 85% 30.09 in - North - - N/A   Mostly Cloudy
12:36 AM -2.2 °F - -7.6 °F 78% 30.10 in - North - - N/A   Scattered Clouds
12:56 AM -2.2 °F - -5.8 °F 85% 30.10 in - North - - N/A   Unknown
1:16 AM -0.4 °F - -5.8 °F 78% 30.10 in - North - - N/A   Unknown
1:36 AM -0.4 °F - -5.8 °F 78% 30.10 in - North - - N/A   Clear
1:56 AM -0.4 °F - -5.8 °F 78% 30.12 in - North - - N/A   Unknown
2:16 AM 1.4 °F - -4.0 °F 78% 30.12 in - North - - N/A   Unknown
2:36 AM 3.2 °F - -0.4 °F 85% 30.14 in - North - - N/A   Unknown
2:56 AM 6.8 °F - 3.2 °F 85% 30.14 in - North - - N/A   Unknown
3:16 AM 6.8 °F - 1.4 °F 79% 30.14 in - North - - N/A   Clear
3:36 AM 6.8 °F - -2.2 °F 67% 30.14 in - North - - N/A   Clear
3:56 AM 8.6 °F - -5.8 °F 52% 30.14 in - North - - N/A   Clear
4:16 AM 6.8 °F - -9.4 °F 48% 30.14 in - North - - N/A   Clear
4:36 AM 10.4 °F - -9.4 °F 41% 30.15 in - North - - N/A   Clear
5:16 AM 6.8 °F - -13.0 °F 40% 30.16 in - North - - N/A   Clear
5:36 AM 3.2 °F - -13.0 °F 47% 30.17 in - North - - N/A   Clear
5:56 AM 5.0 °F - -13.0 °F 43% 30.18 in - North - - N/A   Clear
6:16 AM 3.2 °F - -13.0 °F 47% 30.17 in - North - - N/A   Clear
6:36 AM 3.2 °F - -13.0 °F 47% 30.18 in - North - - N/A   Clear
6:56 AM 5.0 °F - -13.0 °F 43% 30.18 in - North - - N/A   Clear
7:16 AM 6.8 °F - -16.6 °F 34% 30.18 in - North - - N/A   Clear
7:36 AM 6.8 °F - -18.4 °F 31% 30.19 in - North - - N/A   Clear
7:56 AM 6.8 °F - -18.4 °F 31% 30.19 in - North - - N/A   Clear
8:16 AM 10.4 °F - -18.4 °F 26% 30.20 in - North - - N/A   Scattered Clouds
8:36 AM 12.2 °F -8.9 °F -22.0 °F 20% 30.21 in - West 28.8 mph - N/A   Scattered Clouds
8:56 AM 12.2 °F -8.2 °F -22.0 °F 20% 30.21 in - West 26.5 mph - N/A   Scattered Clouds
9:16 AM 14.0 °F -5.1 °F -22.0 °F 19% 30.22 in - West 24.2 mph - N/A   Clear
9:36 AM 17.6 °F 0.1 °F -20.2 °F 18% 30.22 in - West 23.0 mph - N/A   Clear
9:56 AM 17.6 °F -0.3 °F -22.0 °F 16% 30.23 in - WSW 24.2 mph - N/A   Scattered Clouds
10:16 AM 17.6 °F 1.3 °F -18.4 °F 19% 30.23 in - SW 19.6 mph - N/A   Mostly Cloudy
10:35 AM 19.4 °F 4.5 °F -20.2 °F 16% 30.23 in - SW 17.3 mph - N/A   Scattered Clouds
10:56 AM 19.4 °F 5.0 °F -13.0 °F 23% 30.22 in - SW 16.1 mph - N/A   Scattered Clouds
11:16 AM 19.4 °F 6.0 °F -2.2 °F 39% 30.22 in - SSW 13.8 mph - N/A   Scattered Clouds
11:34 AM 21.2 °F 8.3 °F -5.8 °F 30% 30.21 in - SSW 13.8 mph - N/A   Mostly Cloudy
11:38 AM 21.2 °F 7.8 °F -5.8 °F 30% 30.20 in - SSW 15.0 mph - N/A   Mostly Cloudy